Stations météo

réclame
Mon MeteoGroup
Norrkoping, Suède (2574): Température de l'air & dewpoint: 12.08.2018 02:00:00 - 18.08.2018 02:00:00 (CEST)Norrkoping, Suède (2574): Vitesse du vent & gusts: 12.08.2018 02:00:00 - 18.08.2018 02:00:00 (CEST)Norrkoping, Suède (2574): Direction du vent: 12.08.2018 02:00:00 - 18.08.2018 02:00:00 (CEST)Norrkoping, Suède (2574): reduced air pressure: 12.08.2018 02:00:00 - 18.08.2018 02:00:00 (CEST)Norrkoping, Suède (2574): visibility: 12.08.2018 02:00:00 - 18.08.2018 02:00:00 (CEST)Norrkoping, Suède (2574): Quantités de précipitations: 12.08.2018 02:00:00 - 18.08.2018 02:00:00 (CEST)
Date & Time tt [°C] td [°C] ff [km/h] ff [knt] fx [km/h] fx [knt] dd ppp [hPa] vv [km] rr [mm]
18.08.2018 02:00:00 13,8 10,6 5 3 11 6 SW 1015,8 50 0,0
18.08.2018 01:00:00 14,3 10,9 7 4 14 7 SW 1015,7 50 0,0
18.08.2018 00:00:00 14,6 11,6 6 3 11 6 SW 1015,3 50 0,0
17.08.2018 23:00:00 14,8 12,3 5 3 9 5 SSW 1014,9 50 0,0
17.08.2018 22:00:00 15,5 12,4 6 3 11 6 SSW 1014,8 50 0,0
17.08.2018 21:00:00 16,4 12,4 6 3 10 5 S 1014,7 50 0,0
17.08.2018 20:00:00 16,8 12,7 5 3 21 12 SSW 1014,3 50 0,3
17.08.2018 19:00:00 19,6 11,6 6 3 29 16 W 1013,8 50 0,0
17.08.2018 18:00:00 21,6 13,5 14 8 30 16 WNW 1012,8 50 0,0
17.08.2018 17:00:00 23,3 14,0 13 7 32 17 WNW 1012,2 50 0,0
17.08.2018 16:00:00 24,4 14,5 11 6 28 15 WNW 1012,0 46 0,0
17.08.2018 15:00:00 25,7 15,4 9 5 22 12 W 1012,0 40 0,0
17.08.2018 14:00:00 23,9 17,4 6 3 19 10 W 1012,2 44 0,4
17.08.2018 13:00:00 24,7 15,3 12 6 24 13 W 1012,6 45 0,0
17.08.2018 12:00:00 25,9 15,9 10 5 21 11 SSW 1012,9 39 0,0
17.08.2018 11:00:00 23,7 15,7 6 3 14 7 SSE 1013,4 34 0,0
17.08.2018 10:00:00 22,5 15,8 8 4 17 9 SSE 1013,6 41 0,0
17.08.2018 09:00:00 20,9 15,9 6 4 18 10 SW 1013,8 44 0,0
17.08.2018 08:00:00 19,4 15,3 9 5 17 9 SSW 1013,9 44 0,0
17.08.2018 07:00:00 18,4 15,1 8 4 17 9 S 1014,0 42 0,0
17.08.2018 06:00:00 17,5 14,4 6 3 15 8 S 1014,0 45 0,0
17.08.2018 05:00:00 17,9 14,2 6 4 15 8 S 1014,1 48 0,0
17.08.2018 04:00:00 18,8 14,3 7 4 17 9 SSW 1014,2 46 0,0
17.08.2018 03:00:00 19,0 14,0 7 4 22 12 SSW 1014,2 47 0,0
17.08.2018 02:00:00 19,5 13,9 10 6 26 14 S 1013,8 48 0,0
17.08.2018 01:00:00 19,8 14,4 12 7 23 12 S 1014,0 50 0,0
17.08.2018 00:00:00 19,7 15,1 11 6 21 12 S 1014,1 50 0,0
16.08.2018 23:00:00 19,9 15,7 9 5 17 9 SSE 1013,8 50 0,0
16.08.2018 22:00:00 20,8 14,7 7 4 19 10 SSE 1013,8 50 0,0
16.08.2018 21:00:00 21,4 14,3 6 4 15 8 SSE 1013,8 35 0,0
16.08.2018 20:00:00 22,3 14,2 7 4 19 10 S 1013,7 49 0,0
16.08.2018 19:00:00 23,0 14,0 8 4 21 11 SSW 1013,8 50 0,0
16.08.2018 18:00:00 23,5 13,9 11 6 27 14 SSW 1014,1 50 0,0
16.08.2018 17:00:00 23,8 14,8 11 6 25 14 S 1014,2 44 0,0
16.08.2018 16:00:00 23,7 14,4 13 7 26 14 SSW 1014,5 46 0,0
16.08.2018 15:00:00 23,9 14,6 13 7 25 14 SSW 1014,7 46 0,0
16.08.2018 14:00:00 23,7 14,7 12 7 23 12 SW 1014,9 49 0,0
16.08.2018 13:00:00 23,2 14,5 10 6 21 11 SW 1015,0 50 0,0
16.08.2018 12:00:00 22,2 14,8 8 5 22 12 SW 1015,2 45 0,0
16.08.2018 11:00:00 22,7 14,8 8 5 18 10 S 1015,4 48 0,0
16.08.2018 10:00:00 20,8 15,6 8 5 14 8 SSW 1015,5 44 0,0
16.08.2018 09:00:00 18,8 14,7 5 3 13 7 S 1015,6 44 0,0
16.08.2018 08:00:00 16,7 13,8 3 2 6 4 SSE 1015,7 50 0,0
16.08.2018 07:00:00 15,4 13,6 3 2 7 4 SSE 1015,9 50 0,0
16.08.2018 06:00:00 13,2 12,6 2 1 4 2 ESE 1015,7 38 0,0
16.08.2018 05:00:00 13,2 12,3 0 0 6 3 N 1015,6 50 0,0
16.08.2018 04:00:00 15,1 13,0 3 2 6 4 S 1015,4 50 0,0
16.08.2018 03:00:00 15,8 12,9 0 0 7 4 N 1015,4 50 0,0
16.08.2018 02:00:00 15,6 12,7 3 2 9 5 SSW 1015,5 50 0,0
16.08.2018 01:00:00 15,4 12,2 4 2 11 6 SW 1015,4 50 0,0
16.08.2018 00:00:00 16,8 11,5 5 3 9 5 SSW 1014,9 50 0,0
15.08.2018 23:00:00 16,5 11,8 3 2 6 4 S 1014,8 50 0,0
15.08.2018 22:00:00 16,4 12,0 3 2 5 3 SSE 1014,7 50 0,0
15.08.2018 21:00:00 15,9 12,1 2 1 5 3 S 1014,4 50 0,0
15.08.2018 20:00:00 19,3 11,6 0 0 11 6 N 1013,7 50 0,0
15.08.2018 19:00:00 20,6 11,8 7 4 19 10 WNW 1013,6 50 0,0
15.08.2018 18:00:00 20,5 13,2 5 3 13 7 WNW 1013,5 50 0,0
15.08.2018 17:00:00 20,9 13,1 5 3 13 7 WNW 1013,1 46 0,0
15.08.2018 16:00:00 20,2 13,4 5 3 16 9 WNW 1012,9 50 0,0
15.08.2018 15:00:00 20,5 13,7 5 3 12 6 WNW 1012,9 48 0,0
15.08.2018 14:00:00 19,0 13,0 4 2 17 9 WNW 1012,7 50 0,0
15.08.2018 13:00:00 19,9 13,4 6 4 17 9 WNW 1012,1 49 0,0
15.08.2018 12:00:00 18,9 13,5 8 5 16 9 NW 1011,7 49 0,0
15.08.2018 11:00:00 18,5 13,6 6 4 14 8 WNW 1011,4 50 0,0
15.08.2018 10:00:00 17,7 13,4 5 3 11 6 W 1010,9 45 0,0
15.08.2018 09:00:00 16,3 13,4 4 2 10 5 W 1010,7 50 0,0
15.08.2018 08:00:00 15,9 13,2 4 2 11 6 WNW 1010,1 49 0,0
15.08.2018 07:00:00 14,7 13,1 3 2 10 5 N 1009,7 50 0,0
15.08.2018 06:00:00 14,2 12,8 5 3 10 5 NW 1009,4 50 0,0
15.08.2018 05:00:00 14,3 12,9 3 2 9 5 NNW 1009,0 50 0,0
15.08.2018 04:00:00 14,6 13,1 4 2 9 5 N 1008,7 50 0,0
15.08.2018 03:00:00 14,7 12,9 3 2 11 6 N 1008,4 25 0,0
15.08.2018 02:00:00 14,8 12,5 3 2 11 6 N 1008,3 50 0,0
15.08.2018 01:00:00 14,8 12,5 4 2 11 6 N 1008,2 50 0,0
15.08.2018 00:00:00 15,1 12,6 3 2 8 4 N 1008,0 50 0,0
14.08.2018 23:00:00 15,1 12,6 3 1 14 7 NE 1008,1 50 0,0
14.08.2018 22:00:00 15,2 12,7 3 2 18 10 NE 1007,9 50 0,0
14.08.2018 21:00:00 15,3 13,1 6 3 17 9 NE 1007,7 50 0,0
14.08.2018 20:00:00 15,7 13,4 4 2 16 9 ENE 1007,7 50 0,0
14.08.2018 19:00:00 15,8 13,1 6 3 20 11 ENE 1007,6 50 0,0
14.08.2018 18:00:00 16,0 14,0 6 4 18 10 NE 1007,7 49 0,0
14.08.2018 17:00:00 15,2 14,4 6 3 15 8 ENE 1008,0 38 0,2
14.08.2018 16:00:00 14,6 13,6 6 3 20 11 NE 1008,4 10 0,9
14.08.2018 15:00:00 14,6 13,3 8 4 22 12 ENE 1008,7 13 0,3
14.08.2018 14:00:00 14,8 12,1 7 4 19 10 E 1009,0 16 0,0
14.08.2018 13:00:00 15,3 12,8 7 4 17 9 E 1009,0 50 0,0
14.08.2018 12:00:00 15,3 13,3 4 2 11 6 E 1009,4 14 0,1
14.08.2018 11:00:00 15,2 13,2 4 2 11 6 E 1009,6 50 0,0
14.08.2018 10:00:00 14,8 13,5 4 2 9 5 E 1009,7 29 0,1
14.08.2018 09:00:00 14,4 12,8 3 2 7 4 E 1009,7 31 0,2
14.08.2018 08:00:00 14,1 11,8 3 2 8 4 E 1009,7 42 0,1
14.08.2018 07:00:00 13,6 11,3 3 2 9 5 E 1009,7 50 0,0
14.08.2018 06:00:00 12,4 10,5 4 2 8 4 E 1009,7 50 0,0
14.08.2018 05:00:00 10,6 9,7 0 0 4 2 N 1009,9 50 0,0
14.08.2018 04:00:00 10,5 9,4 0 0 5 3 N 1010,2 50 0,0
14.08.2018 03:00:00 10,4 9,5 0 0 5 3 N 1010,3 50 0,0
14.08.2018 02:00:00 10,6 9,2 0 0 4 2 N 1010,3 50 0,0
14.08.2018 01:00:00 11,7 9,1 3 2 7 4 E 1010,3 50 0,0
14.08.2018 00:00:00 13,4 9,3 5 3 7 4 E 1010,2 50 0,0
13.08.2018 23:00:00 14,3 9,3 3 2 7 4 ESE 1009,8 50 0,0
13.08.2018 22:00:00 15,2 9,3 3 2 8 4 SE 1009,9 50 0,0
13.08.2018 21:00:00 16,9 9,3 4 2 12 7 SE 1009,8 50 0,0
13.08.2018 20:00:00 19,6 6,3 4 2 13 7 ESE 1009,4 50 0,0
13.08.2018 19:00:00 21,3 6,4 4 2 13 7 ENE 1009,3 50 0,0
13.08.2018 18:00:00 21,7 6,0 6 3 14 8 W 1009,5 50 0,0
13.08.2018 17:00:00 22,1 5,9 4 2 13 7 N 1009,5 50 0,0
13.08.2018 16:00:00 21,5 6,7 5 3 13 7 NNE 1009,4 48 0,0
13.08.2018 15:00:00 21,3 6,4 5 3 14 8 WNW 1009,8 48 0,0
13.08.2018 14:00:00 19,5 7,9 4 2 13 7 N 1010,3 50 0,0
13.08.2018 13:00:00 20,2 8,8 8 4 15 8 W 1010,3 43 0,0
13.08.2018 12:00:00 18,6 9,1 5 3 12 7 W 1010,5 43 0,0
13.08.2018 11:00:00 16,7 9,4 4 2 11 6 WSW 1010,6 44 0,0
13.08.2018 10:00:00 15,3 10,1 7 4 25 13 WNW 1010,7 44 0,0
13.08.2018 09:00:00 14,1 10,5 8 4 16 8 WNW 1010,6 39 0,0
13.08.2018 08:00:00 13,3 10,1 6 3 16 8 W 1010,2 33 0,0
13.08.2018 07:00:00 11,2 10,1 3 2 11 6 W 1010,0 45 0,0
13.08.2018 06:00:00 9,7 9,1 3 1 8 4 SW 1010,1 50 0,0
13.08.2018 05:00:00 9,7 9,1 4 2 9 5 WSW 1010,1 50 0,0
13.08.2018 04:00:00 10,2 9,4 4 2 11 6 WSW 1009,9 50 0,0
13.08.2018 03:00:00 11,1 10,0 5 3 11 6 WSW 1009,7 50 0,0
13.08.2018 02:00:00 11,9 10,5 6 3 12 7 NW 1009,7 50 0,0
13.08.2018 01:00:00 12,2 10,9 5 3 18 10 NW 1009,7 50 0,0
13.08.2018 00:00:00 12,3 11,2 5 3 12 7 NW 1009,7 50 0,0
12.08.2018 23:00:00 12,5 10,9 8 5 18 10 WNW 1009,5 50 0,0
12.08.2018 22:00:00 12,1 11,2 4 2 18 10 WSW 1009,4 42 0,1
12.08.2018 21:00:00 12,2 11,1 4 2 19 10 W 1009,3 10 0,8
12.08.2018 20:00:00 12,8 11,0 8 5 29 15 NW 1008,8 50 0,1
12.08.2018 19:00:00 13,4 11,6 10 5 31 17 NW 1008,0 10 0,7
12.08.2018 18:00:00 16,2 10,5 13 7 30 16 WNW 1007,4 50 0,0
12.08.2018 17:00:00 16,4 11,1 10 5 35 19 NW 1007,0 50 0,0
12.08.2018 16:00:00 16,9 10,5 13 7 48 26 NW 1006,9 49 0,0
12.08.2018 15:00:00 18,2 11,0 14 8 35 19 WNW 1006,5 50 0,0
12.08.2018 14:00:00 16,6 10,4 17 9 39 21 WNW 1006,5 50 0,0
12.08.2018 13:00:00 16,2 10,9 13 7 34 19 W 1006,3 42 0,0
12.08.2018 12:00:00 14,4 12,6 9 5 26 14 W 1006,1 43 1,1
12.08.2018 11:00:00 14,9 11,5 12 6 26 14 W 1005,8 50 0,0
12.08.2018 10:00:00 14,3 11,8 11 6 26 14 W 1005,3 50 0,0
12.08.2018 09:00:00 13,4 11,8 9 5 23 12 W 1004,9 50 0,1
12.08.2018 08:00:00 13,7 11,9 9 5 22 12 W 1004,8 50 0,0
12.08.2018 07:00:00 12,9 11,8 8 4 16 9 WSW 1004,8 38 0,1
12.08.2018 06:00:00 12,5 11,2 7 4 16 8 WSW 1005,0 50 0,0
12.08.2018 05:00:00 12,6 11,5 7 4 14 7 WSW 1005,5 50 0,1
12.08.2018 04:00:00 13,0 11,9 5 3 17 9 W 1006,1 50 0,0
12.08.2018 03:00:00 13,3 12,5 7 4 13 7 WSW 1006,4 34 0,0
12.08.2018 02:00:00 13,3 12,5 3 1 8 4 W 1006,8 42 0,0

tt = Température de l'air
td = dewpoint
ff = Vitesse du vent
fx = gusts
dd = Direction du vent
ppp = reduced air pressure
vv = visibility
rr = Quantités de précipitations

stations d'obs. à proximité